Year,Month,Day,Hour,Minute,Value (Times are PST for temperature in C)
2016,08,19,09,39,25.80
2016,08,19,09,40,25.80
2016,08,19,09,41,25.80
2016,08,19,09,42,25.90
2016,08,19,09,43,25.90
2016,08,19,09,44,26.00
2016,08,19,09,45,26.00
2016,08,19,09,46,26.00
2016,08,19,09,47,26.00
2016,08,19,09,48,26.00
2016,08,19,09,49,26.00
2016,08,19,09,50,26.00
2016,08,19,09,51,26.10
2016,08,19,09,52,26.10
2016,08,19,09,53,26.10
2016,08,19,09,54,26.10
2016,08,19,09,55,26.20
2016,08,19,09,56,26.20
2016,08,19,09,57,26.20
2016,08,19,09,58,26.10
2016,08,19,09,59,26.20
2016,08,19,10,00,26.20
2016,08,19,10,01,26.20
2016,08,19,10,02,26.20
2016,08,19,10,03,26.30
2016,08,19,10,04,26.30
2016,08,19,10,05,26.30
2016,08,19,10,06,26.40
2016,08,19,10,07,26.40
2016,08,19,10,08,26.40
2016,08,19,10,09,26.40
2016,08,19,10,10,26.50
2016,08,19,10,11,26.60
2016,08,19,10,12,26.60
2016,08,19,10,13,26.60
2016,08,19,10,14,26.60
2016,08,19,10,15,26.60
2016,08,19,10,16,26.70
2016,08,19,10,17,26.70
2016,08,19,10,18,26.70
2016,08,19,10,19,26.70
2016,08,19,10,20,26.80
2016,08,19,10,21,26.80
2016,08,19,10,22,26.90
2016,08,19,10,23,26.90
2016,08,19,10,24,27.00
2016,08,19,10,25,27.10
2016,08,19,10,26,27.10
2016,08,19,10,27,27.20
2016,08,19,10,28,27.30
2016,08,19,10,29,27.30
2016,08,19,10,30,27.30
2016,08,19,10,31,27.30
2016,08,19,10,32,27.20
2016,08,19,10,33,27.20
2016,08,19,10,34,27.20
2016,08,19,10,35,27.30
2016,08,19,10,36,27.30
2016,08,19,10,37,27.20
2016,08,19,10,38,27.20
2016,08,19,10,39,27.20
2016,08,19,10,40,27.20
2016,08,19,10,41,27.20
2016,08,19,10,42,27.30
2016,08,19,10,43,27.30
2016,08,19,10,44,27.30
2016,08,19,10,45,27.40
2016,08,19,10,46,27.50
2016,08,19,10,47,27.60
2016,08,19,10,48,27.70
2016,08,19,10,49,27.80
2016,08,19,10,50,27.80
2016,08,19,10,51,27.80
2016,08,19,10,52,27.90
2016,08,19,10,53,27.90
2016,08,19,10,54,27.90
2016,08,19,10,55,27.90
2016,08,19,10,56,27.90
2016,08,19,10,57,27.90
2016,08,19,10,58,28.00
2016,08,19,10,59,28.00
2016,08,19,11,00,28.00
2016,08,19,11,01,28.00
2016,08,19,11,02,28.00
2016,08,19,11,03,27.90
2016,08,19,11,04,27.90
2016,08,19,11,05,27.90
2016,08,19,11,06,27.90
2016,08,19,11,07,27.90
2016,08,19,11,08,27.90
2016,08,19,11,09,28.00
2016,08,19,11,10,28.00
2016,08,19,11,11,28.00
2016,08,19,11,12,28.00
2016,08,19,11,13,28.00
2016,08,19,11,14,28.00
2016,08,19,11,15,28.00
2016,08,19,11,16,28.00
2016,08,19,11,17,28.00
2016,08,19,11,18,28.00
2016,08,19,11,19,28.00
2016,08,19,11,20,28.00
2016,08,19,11,21,28.00
2016,08,19,11,22,28.00
2016,08,19,11,23,28.00
2016,08,19,11,24,28.00
2016,08,19,11,25,28.00
2016,08,19,11,26,28.00
2016,08,19,11,27,28.00
2016,08,19,11,28,28.00
2016,08,19,11,29,28.00
2016,08,19,11,30,28.10
2016,08,19,11,31,28.20
2016,08,19,11,32,28.30
2016,08,19,11,33,28.30
2016,08,19,11,34,28.30
2016,08,19,11,35,28.40
2016,08,19,11,36,28.40
2016,08,19,11,37,28.40
2016,08,19,11,38,28.50
2016,08,19,11,39,28.60
2016,08,19,11,40,28.50
2016,08,19,11,41,28.40
2016,08,19,11,42,28.40
2016,08,19,11,43,28.30
2016,08,19,11,44,28.30
2016,08,19,11,45,28.40
2016,08,19,11,46,28.40
2016,08,19,11,47,28.40
2016,08,19,11,48,28.40
2016,08,19,11,49,28.40
2016,08,19,11,50,28.40
2016,08,19,11,51,28.40
2016,08,19,11,52,28.40
2016,08,19,11,53,28.40
2016,08,19,11,54,28.40
2016,08,19,11,55,28.40
2016,08,19,11,56,28.40
2016,08,19,11,57,28.40
2016,08,19,11,58,28.40
2016,08,19,11,59,28.50
2016,08,19,12,00,28.60
2016,08,19,12,01,28.60
2016,08,19,12,02,28.60
2016,08,19,12,03,28.70
2016,08,19,12,04,28.70
2016,08,19,12,05,28.70
2016,08,19,12,06,28.60
2016,08,19,12,07,28.60
2016,08,19,12,08,28.60
2016,08,19,12,09,28.60
2016,08,19,12,10,28.70
2016,08,19,12,11,28.80
2016,08,19,12,12,28.80
2016,08,19,12,13,28.90
2016,08,19,12,14,28.90
2016,08,19,12,15,29.00
2016,08,19,12,16,29.10
2016,08,19,12,17,29.10
2016,08,19,12,18,29.20
2016,08,19,12,19,29.10
2016,08,19,12,20,29.10
2016,08,19,12,21,29.00
2016,08,19,12,22,28.90
2016,08,19,12,23,28.90
2016,08,19,12,24,28.90
2016,08,19,12,25,28.90
2016,08,19,12,26,28.90
2016,08,19,12,27,28.90
2016,08,19,12,28,28.90
2016,08,19,12,29,28.80
2016,08,19,12,30,28.80
2016,08,19,12,31,28.80
2016,08,19,12,32,28.90
2016,08,19,12,33,28.90
2016,08,19,12,34,28.90
2016,08,19,12,35,28.90
2016,08,19,12,36,28.90
2016,08,19,12,37,28.90
2016,08,19,12,38,29.10
2016,08,19,12,39,29.20
2016,08,19,12,40,29.20
2016,08,19,12,41,29.20
2016,08,19,12,42,29.20
2016,08,19,12,43,29.30
2016,08,19,12,44,29.30
2016,08,19,12,45,29.40
2016,08,19,12,46,29.50
2016,08,19,12,47,29.50
2016,08,19,12,48,29.50
2016,08,19,12,49,29.50
2016,08,19,12,50,29.50
2016,08,19,12,51,29.50
2016,08,19,12,52,29.40
2016,08,19,12,53,29.30
2016,08,19,12,54,29.20
2016,08,19,12,55,29.10
2016,08,19,12,56,29.10
2016,08,19,12,57,29.10
2016,08,19,12,58,29.10
2016,08,19,12,59,29.20
2016,08,19,13,00,29.30
2016,08,19,13,01,29.30
2016,08,19,13,02,29.30
2016,08,19,13,03,29.40
2016,08,19,13,04,29.40
2016,08,19,13,05,29.50
2016,08,19,13,06,29.50
2016,08,19,13,07,29.50
2016,08,19,13,08,29.40
2016,08,19,13,09,29.40
2016,08,19,13,10,29.50
2016,08,19,13,11,29.60
2016,08,19,13,12,29.70
2016,08,19,13,13,29.80
2016,08,19,13,14,29.80
2016,08,19,13,15,29.90
2016,08,19,13,16,29.90
2016,08,19,13,17,30.00
2016,08,19,13,18,30.10
2016,08,19,13,19,30.20
2016,08,19,13,20,30.20
2016,08,19,13,21,30.20
2016,08,19,13,22,30.20
2016,08,19,13,23,30.20
2016,08,19,13,24,30.20
2016,08,19,13,25,30.30
2016,08,19,13,26,30.20
2016,08,19,13,27,30.20
2016,08,19,13,28,30.30
2016,08,19,13,29,30.30
2016,08,19,13,30,30.30
2016,08,19,13,31,30.40
2016,08,19,13,32,30.60
2016,08,19,13,33,30.40
2016,08,19,13,34,30.40
2016,08,19,13,35,30.50
2016,08,19,13,36,30.40
2016,08,19,13,37,30.50
2016,08,19,13,38,30.50
2016,08,19,13,39,30.50
2016,08,19,13,40,30.40
2016,08,19,13,41,30.40
2016,08,19,13,42,30.60
2016,08,19,13,43,30.50
2016,08,19,13,44,30.40
2016,08,19,13,45,30.30
2016,08,19,13,46,30.20
2016,08,19,13,47,30.30
2016,08,19,13,48,30.30
2016,08,19,13,49,30.30
2016,08,19,13,50,30.30
2016,08,19,13,51,30.40
2016,08,19,13,52,30.50
2016,08,19,13,53,30.60
2016,08,19,13,54,30.60
2016,08,19,13,55,30.60
2016,08,19,13,56,30.70
2016,08,19,13,57,30.70
2016,08,19,13,58,30.70
2016,08,19,13,59,30.70
2016,08,19,14,00,30.70
2016,08,19,14,01,30.70
2016,08,19,14,02,30.80
2016,08,19,14,03,30.70
2016,08,19,14,04,30.70
2016,08,19,14,05,30.70
2016,08,19,14,06,30.80
2016,08,19,14,07,30.80
2016,08,19,14,08,30.80
2016,08,19,14,09,30.80
2016,08,19,14,10,30.80
2016,08,19,14,11,30.90
2016,08,19,14,12,30.90
2016,08,19,14,13,31.00
2016,08,19,14,14,31.10
2016,08,19,14,15,31.20
2016,08,19,14,16,31.30
2016,08,19,14,17,31.40
2016,08,19,14,18,31.40
2016,08,19,14,19,31.30
2016,08,19,14,20,31.30
2016,08,19,14,21,31.30
2016,08,19,14,22,31.20
2016,08,19,14,23,31.20
2016,08,19,14,24,31.20
2016,08,19,14,25,31.20
2016,08,19,14,26,31.30
2016,08,19,14,27,31.40
2016,08,19,14,28,31.50
2016,08,19,14,29,31.60
2016,08,19,14,30,31.60
2016,08,19,14,31,31.70
2016,08,19,14,32,31.80
2016,08,19,14,33,31.90
2016,08,19,14,34,31.90
2016,08,19,14,35,31.90
2016,08,19,14,36,31.90
2016,08,19,14,37,31.80
2016,08,19,14,38,31.80
2016,08,19,14,39,31.90
2016,08,19,14,40,31.90
2016,08,19,14,41,31.90
2016,08,19,14,42,32.00
2016,08,19,14,43,31.90
2016,08,19,14,44,32.00
2016,08,19,14,45,32.10
2016,08,19,14,46,32.10
2016,08,19,14,47,32.10
2016,08,19,14,48,32.20
2016,08,19,14,49,32.30
2016,08,19,14,50,32.40
2016,08,19,14,51,32.30
2016,08,19,14,52,32.20
2016,08,19,14,53,32.00
2016,08,19,14,54,31.60
2016,08,19,14,55,31.20
2016,08,19,14,56,30.90
2016,08,19,14,57,30.50
2016,08,19,14,58,30.20
2016,08,19,14,59,30.10
2016,08,19,15,00,29.80
2016,08,19,15,01,29.60
2016,08,19,15,02,29.30
2016,08,19,15,03,29.20
2016,08,19,15,04,29.10
2016,08,19,15,05,29.00
2016,08,19,15,06,28.90
2016,08,19,15,07,28.90
2016,08,19,15,08,28.90
2016,08,19,15,09,28.90
2016,08,19,15,10,28.90
2016,08,19,15,11,28.90
2016,08,19,15,12,28.90
2016,08,19,15,13,28.90
2016,08,19,15,14,28.90
2016,08,19,15,15,28.90
2016,08,19,15,16,28.90
2016,08,19,15,17,28.80
2016,08,19,15,18,28.60
2016,08,19,15,19,28.40
2016,08,19,15,20,28.20
2016,08,19,15,21,27.90
2016,08,19,15,22,27.70
2016,08,19,15,23,27.50
2016,08,19,15,24,27.30
2016,08,19,15,25,27.30
2016,08,19,15,26,27.20
2016,08,19,15,27,27.00
2016,08,19,15,28,26.90
2016,08,19,15,29,26.80
2016,08,19,15,30,26.80
2016,08,19,15,31,26.80
2016,08,19,15,32,26.90
2016,08,19,15,33,27.00
2016,08,19,15,34,27.10
2016,08,19,15,35,27.20
2016,08,19,15,36,27.20
2016,08,19,15,37,27.30
2016,08,19,15,38,27.30
2016,08,19,15,39,27.30
2016,08,19,15,40,27.40
2016,08,19,15,41,27.50
2016,08,19,15,42,27.60
2016,08,19,15,43,27.70
2016,08,19,15,44,27.80
2016,08,19,15,45,27.80
2016,08,19,15,46,27.90
2016,08,19,15,47,27.90
2016,08,19,15,48,27.90
2016,08,19,15,49,28.00
2016,08,19,15,50,28.10
2016,08,19,15,51,28.20
2016,08,19,15,52,28.20
2016,08,19,15,53,28.30
2016,08,19,15,54,28.30
2016,08,19,15,55,28.40
2016,08,19,15,56,28.50
2016,08,19,15,57,28.60
2016,08,19,15,58,28.70
2016,08,19,15,59,28.80
2016,08,19,16,00,28.80
2016,08,19,16,01,28.90
2016,08,19,16,02,29.00
2016,08,19,16,03,29.10
2016,08,19,16,04,29.20
2016,08,19,16,05,29.40
2016,08,19,16,06,29.50
2016,08,19,16,07,29.60
2016,08,19,16,08,29.50
2016,08,19,16,09,29.40
2016,08,19,16,10,29.30
2016,08,19,16,11,29.10
2016,08,19,16,12,29.00
2016,08,19,16,13,28.80
2016,08,19,16,14,28.70
2016,08,19,16,15,28.50
2016,08,19,16,16,28.40
2016,08,19,16,17,28.40
2016,08,19,16,18,28.30
2016,08,19,16,19,28.20
2016,08,19,16,20,28.20
2016,08,19,16,21,28.10
2016,08,19,16,22,28.10
2016,08,19,16,23,28.10
2016,08,19,16,24,28.10
2016,08,19,16,25,28.10
2016,08,19,16,26,28.10
2016,08,19,16,27,28.10
2016,08,19,16,28,28.00
2016,08,19,16,29,28.00
2016,08,19,16,30,27.90
2016,08,19,16,31,27.80
2016,08,19,16,32,27.80
2016,08,19,16,33,27.70
2016,08,19,16,34,27.60
2016,08,19,16,35,27.50
2016,08,19,16,36,27.40
2016,08,19,16,37,27.30
2016,08,19,16,38,27.30
2016,08,19,16,39,27.20
2016,08,19,16,40,27.20
2016,08,19,16,41,27.20
2016,08,19,16,42,27.20
2016,08,19,16,43,27.20
2016,08,19,16,44,27.10
2016,08,19,16,45,27.00
2016,08,19,16,46,26.80
2016,08,19,16,47,26.70
2016,08,19,16,48,26.60
2016,08,19,16,49,26.30
2016,08,19,16,50,26.00
2016,08,19,16,51,25.80
2016,08,19,16,52,25.50
2016,08,19,16,53,25.30
2016,08,19,16,54,25.10
2016,08,19,16,55,25.00
2016,08,19,16,56,24.90
2016,08,19,16,57,24.90
2016,08,19,16,58,24.90
2016,08,19,16,59,24.90
2016,08,19,17,00,25.00
2016,08,19,17,01,25.00
2016,08,19,17,02,25.10
2016,08,19,17,03,25.10
2016,08,19,17,04,25.20
2016,08,19,17,05,25.20
2016,08,19,17,06,25.30
2016,08,19,17,07,25.30
2016,08,19,17,08,25.40
2016,08,19,17,09,25.50
2016,08,19,17,10,25.60
2016,08,19,17,11,25.70
2016,08,19,17,12,25.80
2016,08,19,17,13,25.90
2016,08,19,17,14,26.00
2016,08,19,17,15,26.20
2016,08,19,17,16,26.30
2016,08,19,17,17,26.30
2016,08,19,17,18,26.40
2016,08,19,17,19,26.50
2016,08,19,17,20,26.60
2016,08,19,17,21,26.70
2016,08,19,17,22,26.70
2016,08,19,17,23,26.80
2016,08,19,17,24,26.80
2016,08,19,17,25,26.80
2016,08,19,17,26,26.80
2016,08,19,17,27,26.70
2016,08,19,17,28,26.60
2016,08,19,17,29,26.60
2016,08,19,17,30,26.60
2016,08,19,17,31,26.60
2016,08,19,17,32,26.60
2016,08,19,17,33,26.70
2016,08,19,17,34,26.80
2016,08,19,17,35,26.80
2016,08,19,17,36,26.80
2016,08,19,17,37,26.90
2016,08,19,17,38,26.90
2016,08,19,17,39,27.00
2016,08,19,17,40,27.10
2016,08,19,17,41,27.20
2016,08,19,17,42,27.20
2016,08,19,17,43,27.30
2016,08,19,17,44,27.30
2016,08,19,17,45,27.30
2016,08,19,17,46,27.30
2016,08,19,17,47,27.30
2016,08,19,17,48,27.30
2016,08,19,17,49,27.30
2016,08,19,17,50,27.30
2016,08,19,17,51,27.30
2016,08,19,17,52,27.40
2016,08,19,17,53,27.50
2016,08,19,17,54,27.70
2016,08,19,17,55,27.80
2016,08,19,17,56,28.00
2016,08,19,17,57,28.20
2016,08,19,17,58,28.30
2016,08,19,17,59,28.30
2016,08,19,18,00,28.20
2016,08,19,18,01,28.10
2016,08,19,18,02,27.90
2016,08,19,18,03,27.80
2016,08,19,18,04,27.70
2016,08,19,18,05,27.60
2016,08,19,18,06,27.50
2016,08,19,18,07,27.40
2016,08,19,18,08,27.40
2016,08,19,18,09,27.30
2016,08,19,18,10,27.30
2016,08,19,18,11,27.30
2016,08,19,18,12,27.30
2016,08,19,18,13,27.30
2016,08,19,18,14,27.30
2016,08,19,18,15,27.30
2016,08,19,18,16,27.30
2016,08,19,18,17,27.30
2016,08,19,18,18,27.30
2016,08,19,18,19,27.30
2016,08,19,18,20,27.30
2016,08,19,18,21,27.30
2016,08,19,18,22,27.20
2016,08,19,18,23,27.30
2016,08,19,18,24,27.30
2016,08,19,18,25,27.30
2016,08,19,18,26,27.30
2016,08,19,18,27,27.30
2016,08,19,18,28,27.30
2016,08,19,18,29,27.30
2016,08,19,18,30,27.30
2016,08,19,18,31,27.30
2016,08,19,18,32,27.30
2016,08,19,18,33,27.30
2016,08,19,18,34,27.30
2016,08,19,18,35,27.30
2016,08,19,18,36,27.30
2016,08,19,18,37,27.30
2016,08,19,18,38,27.40
2016,08,19,18,39,27.40
2016,08,19,18,40,27.50
2016,08,19,18,41,27.60
2016,08,19,18,42,27.60
2016,08,19,18,43,27.70
2016,08,19,18,44,27.70
2016,08,19,18,45,27.70
2016,08,19,18,46,27.60
2016,08,19,18,47,27.60
2016,08,19,18,48,27.60
2016,08,19,18,49,27.50
2016,08,19,18,50,27.40
2016,08,19,18,51,27.40
2016,08,19,18,52,27.30
2016,08,19,18,53,27.30
2016,08,19,18,54,27.20
2016,08,19,18,55,27.20
2016,08,19,18,56,27.10
2016,08,19,18,57,27.10
2016,08,19,18,58,27.20
2016,08,19,18,59,27.20
2016,08,19,19,00,27.20
2016,08,19,19,01,27.20
2016,08,19,19,02,27.10
2016,08,19,19,03,27.10
2016,08,19,19,04,27.00
2016,08,19,19,05,26.80
2016,08,19,19,06,26.80
2016,08,19,19,07,26.70
2016,08,19,19,08,26.70
2016,08,19,19,09,26.60
2016,08,19,19,10,26.50
2016,08,19,19,11,26.40
2016,08,19,19,12,26.40
2016,08,19,19,13,26.30
2016,08,19,19,14,26.30
2016,08,19,19,15,26.30
2016,08,19,19,16,26.30
2016,08,19,19,17,26.30
2016,08,19,19,18,26.30
2016,08,19,19,19,26.30
2016,08,19,19,20,26.30
2016,08,19,19,21,26.30
2016,08,19,19,22,26.30
2016,08,19,19,23,26.40
2016,08,19,19,24,26.40
2016,08,19,19,25,26.40
2016,08,19,19,26,26.40
2016,08,19,19,27,26.40
2016,08,19,19,28,26.50
2016,08,19,19,29,26.60
2016,08,19,19,30,26.60
2016,08,19,19,31,26.70
2016,08,19,19,32,26.70
2016,08,19,19,33,26.80
2016,08,19,19,34,26.80
2016,08,19,19,35,26.80
2016,08,19,19,36,26.80
2016,08,19,19,37,26.80
2016,08,19,19,38,26.90
2016,08,19,19,39,26.90
2016,08,19,19,40,26.90
2016,08,19,19,41,26.90
2016,08,19,19,42,26.90
2016,08,19,19,43,26.90
2016,08,19,19,44,26.90
2016,08,19,19,45,26.90
2016,08,19,19,46,26.90
2016,08,19,19,47,26.80
2016,08,19,19,48,26.80
2016,08,19,19,49,26.80
2016,08,19,19,50,26.80
2016,08,19,19,51,26.70
2016,08,19,19,52,26.70
2016,08,19,19,53,26.70
2016,08,19,19,54,26.70
2016,08,19,19,55,26.60
2016,08,19,19,56,26.60
2016,08,19,19,57,26.60
2016,08,19,19,58,26.60
2016,08,19,19,59,26.60
2016,08,19,20,00,26.60
2016,08,19,20,01,26.60
2016,08,19,20,02,26.70
2016,08,19,20,03,26.70
2016,08,19,20,04,26.70
2016,08,19,20,05,26.70
2016,08,19,20,06,26.60
2016,08,19,20,07,26.60
2016,08,19,20,08,26.60
2016,08,19,20,09,26.60
2016,08,19,20,10,26.60
2016,08,19,20,11,26.60
2016,08,19,20,12,26.60
2016,08,19,20,13,26.60
2016,08,19,20,14,26.60
2016,08,19,20,15,26.60
2016,08,19,20,16,26.60
2016,08,19,20,17,26.60
2016,08,19,20,18,26.60
2016,08,19,20,19,26.60
